TimeAKST,TemperatureF,Dew PointF,Humidity,Sea Level PressureIn,VisibilityMPH,Wind Direction,Wind SpeedMPH,Gust SpeedMPH,PrecipitationIn,Events,Conditions,WindDirDegrees,DateUTC
12:12 AM,15.8,8.6,73,29.45,1.2,North,23.0,36.8,0.00,Snow,Light Snow,360,2011-11-26 09:12:00
12:20 AM,15.8,8.6,73,29.45,2.0,North,23.0,35.7,0.00,Snow,Light Snow,10,2011-11-26 09:20:00
12:27 AM,17.6,8.6,68,29.45,3.0,North,24.2,35.7,0.00,Snow,Light Snow,360,2011-11-26 09:27:00
12:53 AM,17.1,8.1,68,29.44,8.0,North,27.6,40.3,0.00,Snow,Light Snow,360,2011-11-26 09:53:00
1:53 AM,17.1,7.0,65,29.44,9.0,North,26.5,39.1,0.00,Snow,Light Snow,360,2011-11-26 10:53:00
3:53 AM,16.0,6.1,65,29.43,10.0,North,29.9,43.7,N/A,,Clear,10,2011-11-26 12:53:00
4:53 AM,15.1,6.1,68,29.43,10.0,NNE,24.2,40.3,N/A,,Overcast,20,2011-11-26 13:53:00
5:53 AM,16.0,6.1,65,29.44,10.0,North,26.5,38.0,N/A,,Scattered Clouds,360,2011-11-26 14:53:00
6:53 AM,15.1,6.1,68,29.44,10.0,North,25.3,40.3,0.00,,Overcast,10,2011-11-26 15:53:00
7:53 AM,14.0,6.1,71,29.44,10.0,North,25.3,38.0,0.00,,Mostly Cloudy,10,2011-11-26 16:53:00
8:53 AM,14.0,6.1,71,29.45,10.0,North,20.7,36.8,N/A,,Partly Cloudy,10,2011-11-26 17:53:00
9:53 AM,14.0,5.0,67,29.46,10.0,North,19.6,33.4,N/A,,Clear,10,2011-11-26 18:53:00
10:53 AM,15.1,6.1,68,29.47,10.0,North,20.7,32.2,N/A,,Clear,10,2011-11-26 19:53:00
11:53 AM,15.1,6.1,68,29.47,10.0,North,24.2,36.8,N/A,,Clear,360,2011-11-26 20:53:00
12:53 PM,16.0,6.1,65,29.47,10.0,NNE,17.3,29.9,N/A,,Clear,20,2011-11-26 21:53:00
1:53 PM,16.0,7.0,68,29.47,10.0,NNE,20.7,34.5,N/A,,Clear,20,2011-11-26 22:53:00
2:53 PM,15.1,6.1,68,29.46,10.0,North,17.3,36.8,N/A,,Clear,10,2011-11-26 23:53:00
3:53 PM,15.1,6.1,68,29.47,10.0,NNE,19.6,36.8,N/A,,Clear,20,2011-11-27 00:53:00
4:53 PM,14.0,5.0,67,29.47,10.0,NNE,19.6,32.2,N/A,,Clear,30,2011-11-27 01:53:00
5:53 PM,12.9,5.0,71,29.47,10.0,NNE,24.2,32.2,N/A,,Clear,20,2011-11-27 02:53:00
6:53 PM,12.9,5.0,71,29.48,10.0,NNE,17.3,27.6,N/A,,Clear,20,2011-11-27 03:53:00
7:53 PM,12.0,3.9,70,29.48,10.0,North,20.7,33.4,N/A,,Clear,10,2011-11-27 04:53:00
8:53 PM,10.9,3.9,73,29.49,10.0,North,13.8,27.6,N/A,,Clear,10,2011-11-27 05:53:00
9:53 PM,10.9,3.9,73,29.49,10.0,NNE,16.1,27.6,N/A,,Clear,20,2011-11-27 06:53:00
10:53 PM,10.0,3.0,73,29.49,10.0,North,16.1,24.2,N/A,,Clear,10,2011-11-27 07:53:00
11:53 PM,10.0,3.9,76,29.48,10.0,North,16.1,27.6,N/A,,Partly Cloudy,10,2011-11-27 08:53:00